[[{"header":{"parameterUnit":"m.s-1","parameterCategory":1,"la1":30.2991,"la2":30.254,"lo1":-89.0895,"lo2":-89.0444,"dy":0.0017,"dx":0.0017,"nx":28,"ny":28,"refTime":"2025-07-28T03:00:00:Z","depth":0,"parameterNumber":2,"parameterNumberName":"U-component_of_WINDS"},"data":[0,0,0,0,0,0,0,0,0,0,0,0,0,0,0,0,0,0,0,0,0,0,0,0,0,0,0,0,0,0,0,0,0,0,0,0,0,0,0,0,0,0,0,0,0,0,0,0,0,0,0,0,0,0,0,0,0,0,2.0699,2.0701,0,2.0815,2.0817,2.0818,2.0802,2.08,2.0798,2.0796,2.092,2.0925,2.093,0,0,0,0,0,0,0,0,0,0,0,0,0,2.047,2.0474,2.0699,2.0701,2.0702,2.0815,2.0817,2.0818,2.0802,2.08,2.0797,2.0795,2.0918,2.0924,2.093,0,0,0,0,0,0,0,0,0,0,0,0,0,2.0576,2.0476,2.0699,2.0708,2.0709,2.0815,2.0817,2.0819,2.0803,2.08,2.0797,2.0794,2.0916,2.0924,2.0931,2.1037,0,0,2.0955,2.0958,0,0,0,0,0,0,0,0,2.057,2.0585,2.0705,2.0707,2.0709,2.0791,2.0781,2.0892,2.0803,2.0767,2.0796,2.0793,2.088,2.089,2.0919,2.1043,2.1048,2.0955,2.096,2.0963,2.0965,0,0,0,0,0,0,0,2.0563,2.058,2.0745,2.0707,2.071,2.0708,2.072,2.0802,2.0839,2.077,2.0769,2.0783,2.088,2.0911,2.0921,2.105,2.0955,2.0962,2.0967,2.097,2.127,2.1273,0,0,0,0,0,0,2.0553,2.0574,2.0742,2.0749,2.0631,2.0714,2.0727,2.0768,2.0838,2.0845,2.0785,2.0782,2.09,2.0912,2.0926,2.1056,2.0963,2.097,2.0975,2.1267,2.1271,2.1274,0,0,0,0,0,0,2.0548,2.0568,2.0737,2.0661,2.0682,2.0721,2.0767,2.0772,2.0802,2.0849,2.0856,2.081,2.0898,2.0915,2.101,2.106,2.0974,2.0981,2.1263,2.1268,2.1273,2.1316,0,0,0,0,0,0,2.0541,2.0566,2.0605,2.0662,2.0687,2.0817,2.077,2.0776,2.0815,2.0811,2.0874,2.0881,2.0897,2.0998,2.1017,2.1069,2.0987,2.1258,2.1265,2.1271,2.131,2.1322,2.1332,0,0,0,0,0,2.0533,2.0613,2.0607,2.0627,2.0736,2.082,2.0834,2.0849,2.0819,2.086,2.089,2.0879,2.1051,2.1008,2.1029,2.1084,2.1255,2.1263,2.1271,2.1305,2.132,2.1332,0,0,0,0,0,0,2.0562,2.0621,2.0614,2.0715,2.0763,2.0817,2.0869,2.0863,2.0922,2.0916,2.0933,2.0948,2.1044,2.1074,2.1025,2.1192,2.1149,2.1162,2.1169,2.1183,2.1193,2.1184,2.0993,0,0,0,0,0,2.058,2.0642,2.069,2.0774,2.0798,2.083,2.0867,2.0874,2.0925,2.0945,2.0983,2.1034,2.11,2.1143,2.1206,2.1314,2.1329,2.1363,2.1373,2.1382,2.1393,2.1455,2.1471,2.1299,2.1299,2.1299,0,0,2.0618,2.0657,2.0696,2.0781,2.0819,2.0885,2.0847,2.0917,2.0967,2.0957,2.1048,2.1078,2.1137,2.1239,2.1287,2.1267,2.1443,2.1392,2.1398,2.1404,2.1464,2.1481,2.1495,2.1305,2.1304,2.1303,0,0,2.0721,2.0756,2.0831,2.087,2.0927,2.0947,2.0966,2.1022,2.104,2.1132,2.1127,2.1187,2.1299,2.1342,2.1378,2.15,2.1493,2.152,2.1577,2.1637,2.1651,2.1663,2.1708,2.1724,2.153,2.1531,2.1531,0,2.0761,2.0858,2.087,2.0942,2.0981,2.0974,2.1052,2.1089,2.1165,2.1193,2.1169,2.1311,2.135,2.1464,2.1494,2.1523,2.1546,2.1513,2.1647,2.166,2.1671,2.1714,2.1731,2.1534,2.1533,2.1533,2.1533,0,2.0906,2.0973,2.1027,2.11,2.1145,2.1219,2.1245,2.129,2.1294,2.1318,2.1413,2.146,2.1533,2.156,2.1565,2.1676,2.1662,2.1643,2.1601,2.169,2.1731,2.1748,2.1538,2.1537,2.1536,2.1535,0,0,2.1029,2.1108,2.1128,2.1162,2.1225,2.1279,2.1355,2.1425,2.1464,2.1517,2.1582,2.1678,2.1661,2.1703,2.1713,2.1765,2.1861,2.174,2.1742,2.1762,2.1989,2.2003,2.2022,2.1857,2.186,2.1863,2.1984,0,2.1139,2.127,2.1285,2.1403,2.1467,2.1462,2.1528,2.1576,2.1601,2.1661,2.1689,2.1757,2.1729,2.1754,2.1806,2.1838,2.1907,2.183,2.192,2.1923,2.1906,2.2043,2.2058,2.2171,2.2,2.2003,2.2005,0,2.1284,2.1341,2.1465,2.1522,2.155,2.1608,2.1675,2.1732,2.1787,2.1802,2.1849,2.1852,2.1933,2.1887,2.2,2.1947,2.1985,2.2007,2.2012,2.2021,2.197,2.2058,2.2207,2.2224,2.203,2.2028,2.2026,0,2.1364,2.1471,2.156,2.1589,2.1657,2.1699,2.173,2.1781,2.1824,2.1883,2.1911,2.1979,2.2017,2.2071,2.2094,2.2058,2.2206,2.2162,2.2222,2.2222,2.2254,2.2252,2.2412,2.2277,2.2277,2.2276,2.2276,0,2.1486,2.1562,2.1597,2.1651,2.1738,2.1755,2.1841,2.1871,2.1917,2.1979,2.198,2.2039,2.2065,2.2128,2.2147,2.2239,2.2255,2.2271,2.2275,2.2272,2.227,2.2297,2.229,2.2281,2.228,2.2279,2.2278,0,2.1589,2.1615,2.1711,2.1768,2.1785,2.1846,2.1896,2.195,2.1975,2.2053,2.2073,2.2112,2.2187,2.2215,2.2307,2.232,2.2426,2.2424,2.2407,2.2409,2.2468,2.2462,2.2652,2.2679,2.2525,2.2526,2.2527,0,2.1665,2.1724,2.1787,2.1828,2.186,2.1926,2.1969,2.1989,2.2035,2.2103,2.215,2.2224,2.2284,2.2405,2.2443,2.2514,2.2514,2.2576,2.2525,2.252,2.2517,2.2513,2.252,2.2585,2.2587,2.2588,2.2589,0,2.1798,2.1809,2.1869,2.1936,2.1987,2.2041,2.2093,2.2127,2.2156,2.2207,2.2283,2.233,2.2424,2.2499,2.2572,2.2606,2.2604,2.2605,2.2623,2.262,2.2609,2.2617,2.2434,2.2601,2.26,2.2599,2.2598,2.2598,2.1891,2.1944,2.1997,2.2066,2.2107,2.2157,2.2211,2.2242,2.2306,2.2383,2.2391,2.2474,2.253,2.2628,2.2665,2.2732,2.2715,2.2741,2.2747,2.2754,2.2758,2.2597,2.2745,2.2745,2.2744,2.2744,2.2744,0,2.2025,2.206,2.2123,2.2196,2.2251,2.2242,2.23,2.2347,2.2419,2.2471,2.2531,2.262,2.2693,2.2737,2.2811,2.2856,2.2857,2.2875,2.2872,2.288,2.2768,2.2746,2.2873,2.2873,2.2873,2.2873,2.2873,2.2873,2.2102,2.2191,2.2208,2.2319,2.2354,2.2433,2.2467,2.2514,2.2556,2.2654,2.2715,2.2742,2.2792,2.287,2.2938,2.2949,2.2977,2.2997,2.3007,2.2901,2.2888,2.2875,2.2854,2.3002,2.3002,2.3114,2.3115,2.3115]},{"header":{"parameterUnit":"m.s-1","parameterCategory":1,"la1":30.2991,"la2":30.254,"lo1":-89.0895,"lo2":-89.0444,"dy":0.0017,"dx":0.0017,"nx":28,"ny":28,"refTime":"2025-07-28T03:00:00:Z","depth":0,"parameterNumber":3,"parameterNumberName":"V-component_of_WINDS"},"data":[0,0,0,0,0,0,0,0,0,0,0,0,0,0,0,0,0,0,0,0,0,0,0,0,0,0,0,0,0,0,0,0,0,0,0,0,0,0,0,0,0,0,0,0,0,0,0,0,0,0,0,0,0,0,0,0,0,0,1.7216,1.7217,0,1.7331,1.7333,1.7334,1.7256,1.7253,1.7249,1.7246,1.7363,1.7369,1.7376,0,0,0,0,0,0,0,0,0,0,0,0,0,1.6925,1.6931,1.7216,1.7217,1.7219,1.7331,1.7333,1.7334,1.7257,1.7252,1.7248,1.7244,1.7361,1.7369,1.7376,0,0,0,0,0,0,0,0,0,0,0,0,0,1.7047,1.6933,1.7216,1.7194,1.7193,1.7331,1.7333,1.7335,1.7258,1.7252,1.7247,1.7242,1.7359,1.7368,1.7377,1.7543,0,0,1.7407,1.7411,0,0,0,0,0,0,0,0,1.704,1.7058,1.7195,1.7195,1.7195,1.7274,1.7273,1.7405,1.7259,1.7233,1.7246,1.7239,1.7338,1.7349,1.7382,1.7549,1.7554,1.7408,1.7414,1.7418,1.7421,0,0,0,0,0,0,0,1.7032,1.7052,1.7261,1.7197,1.7197,1.7177,1.7188,1.7298,1.7314,1.7235,1.723,1.7244,1.7336,1.7373,1.7384,1.7556,1.7408,1.7416,1.7422,1.7426,1.7859,1.7865,0,0,0,0,0,0,1.7026,1.7046,1.7258,1.7265,1.7103,1.7187,1.7199,1.7254,1.7312,1.7316,1.7249,1.724,1.7359,1.7373,1.7388,1.7583,1.7418,1.7427,1.7432,1.7853,1.786,1.7867,0,0,0,0,0,0,1.702,1.7045,1.7253,1.7154,1.7179,1.7197,1.7259,1.7259,1.7295,1.7323,1.7325,1.7283,1.7355,1.7375,1.7504,1.7586,1.7431,1.744,1.7847,1.7856,1.7864,1.7976,0,0,0,0,0,0,1.7012,1.7044,1.7108,1.7156,1.7185,1.7369,1.7264,1.7265,1.7312,1.7302,1.7356,1.7359,1.7353,1.749,1.7514,1.7596,1.7447,1.7839,1.7851,1.7861,1.7965,1.7987,1.8006,0,0,0,0,0,1.7002,1.7136,1.7112,1.7138,1.7265,1.7374,1.739,1.738,1.7319,1.7383,1.74,1.7358,1.7573,1.7504,1.753,1.7617,1.7834,1.7847,1.786,1.7955,1.7983,1.8006,0,0,0,0,0,0,1.7097,1.7142,1.7115,1.7269,1.7318,1.736,1.7441,1.7409,1.7477,1.7464,1.7448,1.7461,1.7596,1.762,1.7542,1.7778,1.7694,1.7713,1.7758,1.7784,1.7804,1.7795,1.7455,0,0,0,0,0,1.7136,1.7221,1.7255,1.7388,1.7413,1.7423,1.747,1.7458,1.7508,1.7528,1.7555,1.7604,1.7682,1.7735,1.7809,1.7968,1.7976,1.804,1.806,1.8077,1.8093,1.8175,1.8202,1.7909,1.7909,1.7909,0,0,1.7218,1.7252,1.7307,1.7408,1.7444,1.7531,1.7441,1.7538,1.7601,1.7543,1.7666,1.7687,1.7741,1.7885,1.795,1.7909,1.8176,1.8094,1.8107,1.8114,1.8191,1.8219,1.8243,1.7918,1.7916,1.7915,0,0,1.741,1.7446,1.7558,1.7596,1.7652,1.7657,1.7684,1.7731,1.7742,1.7866,1.7822,1.7897,1.8034,1.8072,1.811,1.8314,1.8276,1.8338,1.8446,1.8526,1.8549,1.8569,1.8639,1.8664,1.8354,1.8355,1.8355,0,1.7504,1.7634,1.762,1.7719,1.7763,1.7713,1.7825,1.7862,1.794,1.7971,1.7923,1.8091,1.8124,1.8275,1.8324,1.8358,1.8385,1.8332,1.8547,1.8567,1.8586,1.8652,1.8678,1.8362,1.8361,1.836,1.8359,0,1.7745,1.7835,1.7919,1.7994,1.8047,1.8153,1.8153,1.8209,1.8191,1.8201,1.8325,1.8363,1.8441,1.8477,1.8461,1.8624,1.8596,1.8549,1.8464,1.8621,1.8682,1.8708,1.8372,1.8369,1.8367,1.8365,0,0,1.8001,1.8065,1.8096,1.8127,1.8184,1.8253,1.8355,1.8431,1.8478,1.8533,1.8615,1.8731,1.8685,1.8728,1.8716,1.8787,1.8941,1.873,1.873,1.8765,1.9119,1.9153,1.9182,1.8917,1.8922,1.8926,1.9113,0,1.8194,1.8371,1.8361,1.8527,1.8608,1.856,1.8648,1.8691,1.8703,1.8772,1.8784,1.8864,1.8801,1.8825,1.8893,1.8908,1.9011,1.8895,1.8992,1.8995,1.8977,1.9215,1.9252,1.9428,1.9138,1.9142,1.9145,0,1.8443,1.8504,1.8678,1.8719,1.8753,1.8833,1.89,1.8968,1.9015,1.9017,1.9064,1.9039,1.9139,1.9053,1.9189,1.911,1.9149,1.9162,1.9168,1.9175,1.9078,1.9226,1.9484,1.9509,1.9183,1.918,1.9177,0,1.8609,1.8735,1.8854,1.8883,1.8935,1.8991,1.9015,1.9057,1.9103,1.9162,1.919,1.9261,1.9298,1.9352,1.9346,1.9284,1.9483,1.9397,1.9486,1.9486,1.9529,1.9526,1.9794,1.9559,1.9558,1.9558,1.9557,0,1.8824,1.8931,1.8929,1.9002,1.912,1.9106,1.9223,1.924,1.9277,1.9351,1.9315,1.9385,1.9374,1.9444,1.944,1.9551,1.957,1.9573,1.957,1.9575,1.9574,1.9599,1.9585,1.9565,1.9563,1.9562,1.9561,0,1.9028,1.9032,1.9158,1.9196,1.9207,1.9292,1.9324,1.9392,1.9399,1.9493,1.9514,1.9525,1.9605,1.9605,1.9697,1.9693,1.9829,1.9813,1.9813,1.9809,1.9896,1.9887,2.0188,2.0225,1.9968,1.997,1.9972,0,1.9164,1.9246,1.9291,1.9338,1.9365,1.9442,1.9488,1.9476,1.9525,1.9583,1.9643,1.972,1.978,1.9909,1.9924,1.9993,1.9978,2.0078,1.9988,1.9989,1.9975,1.9969,1.9976,2.0095,2.0098,2.01,2.0102,0,1.9404,1.9401,1.9468,1.9536,1.9591,1.9644,1.9692,1.9733,1.9726,1.9782,1.9863,1.991,2.0002,2.0077,2.0143,2.0166,2.0132,2.0131,2.0154,2.0159,2.0154,2.0154,1.9858,2.0124,2.0122,2.012,2.0119,2.0118,1.9577,1.9645,1.9687,1.9762,1.9797,1.9842,1.9907,1.9921,1.9989,2.0062,2.0052,2.0141,2.0182,2.0267,2.0296,2.0364,2.0328,2.0364,2.0372,2.038,2.0388,2.0145,2.0376,2.0376,2.0375,2.0375,2.0374,0,1.9812,1.9836,1.9905,1.9973,2.0032,1.9995,2.0046,2.0097,2.0176,2.0218,2.0277,2.0368,2.044,2.046,2.0529,2.058,2.0566,2.0598,2.0593,2.0598,2.0418,2.0389,2.0608,2.0607,2.0607,2.0607,2.0607,2.0607,1.9941,2.0054,2.0055,2.0183,2.0206,2.0293,2.0325,2.0365,2.0398,2.0501,2.0561,2.0573,2.0605,2.0675,2.0739,2.0742,2.0768,2.0806,2.0803,2.0634,2.0611,2.0589,2.0561,2.0812,2.0813,2.0977,2.0978,2.098]}]]